Погода в Арекипе

Перу     16°24′38″S   71°30′47″W
темп.,
°C
ветер,
м/с
пор.,
м/с
влажн.,
%
обл.,
%
осадки,
мм/ч
давл.,
гПа
погр.,
м
22 января, сб
сб2201:00+15юз1169100 0.4 1013179
04:00+14зюз1171100 0.1 1012149
07:00+15з116798 0.1 1013241
10:00+18зюз325270 0.0 10131036
13:00+20зюз754724 0.1 10101546
16:00+17з546148 0.8 10111119
19:00+13з328053 2.0 1015497
22:00+13зсз117382 0.3 1016546
23 января, вс
вс2301:00+13зюз1173100 0.3 1015210
04:00+13з117898 0.0 1014145
07:00+13юз107043 0.0 1015296
10:00+17зюз435027 0.0 10141205
13:00+18з8546100 0.0 10121673
16:00+14з557298 0.8 1013937
19:00+12зсз227587 2.3 1016607
22:00+13зсз1164100 0.1 1017511
24 января, пн
пн2401:00+13зюз0064100 0.1 1015271
04:00+12з1175100 0.0 1014176
07:00+12з1069100 0.0 1015266
10:00+16зюз3149100 0.0 10131006
13:00+19зюз6342100 0.0 10101565
16:00+16з5354100 0.1 10111341
19:00+13з326899 0.1 1013606
22:00+13юз117199 0.0 1015254
25 января, вт
вт2501:00+12зюз2176100 0.0 1013208
04:00+12зюз0179100 0.0 1013178
07:00+13ююз117383 0.0 1014243
10:00+17зюз425372 0.0 10121002
13:00+18зюз5348100 0.1 10101457
16:00+16з546078 0.2 10111097
19:00+13з3278100 0.6 1014546
22:00+13зюз2177100 0.1 1015322
26 января, ср
ср2601:00+13юз1179100 0.2 1013224
04:00+12з2183100 0.3 1013198
07:00+12зюз118197 0.4 1016268
10:00+16зюз325978 0.1 1014919
13:00+18зюз645697 0.8 10121403
16:00+13зсз3380100 3.4 1014758
19:00+12з328998 6.2 1017449
22:00+12ююз017876 0.2 1018387